Location: Dannhausen
(51.8650°N, 10.1026°E)
Time: 15:32:34
(UTC+00:00)

SL-08 R/B - Pass Details

Date: 09 April 2020
Orbit: 951 x 1018 km, 82.9° (Epoch: 29 May)

Event Time Altitude Azimuth Distance (km) Brightness Sun altitude
Rises 20:24:37 0° 349° (N) 3,643 8.4 -19.3°
Reaches altitude 10° 20:27:06 10° 349° (N) 2,697 7.6 -19.5°
Maximum altitude 20:33:17 85° 262° (W) 973 4.4 -20.2°
Enters shadow 20:36:45 28° 175° (S) 1,722 5.4 -20.6°
